Weather History for Wilmington, OH

Change the Weather History Date:

Sunday, January 20, 2013

  Actual Average (KDAY) Record (KDAY)
Temperature  
Mean Temperature 34 °F 27 °F  
Max Temperature 44 °F 35 °F 69 °F (1906)
Min Temperature 24 °F 20 °F -24 °F (1985)
Degree Days  
Heating Degree Days 30 38  
Month to date heating degree days 754  
Since 1 July heating degree days 2913  
Cooling Degree Days 0 0  
Month to date cooling degree days 0  
Year to date cooling degree days 0  
Moisture  
Dew Point 16 °F    
Average Humidity 51    
Maximum Humidity 66    
Minimum Humidity 41    
Precipitation  
Precipitation 0.00 in 0.08 in 1.44 in (1935)
Month to date precipitation 1.83  
Year to date precipitation 1.83  
Snow  
Snow 0.00 in 0.30 in 6.10 in (1978)
Month to date snowfall 5.1  
Since 1 July snowfall 10.6  
Snow Depth -    
Sea Level Pressure  
Sea Level Pressure 30.14 in    
Wind  
Wind Speed 17 mph (WNW)    
Max Wind Speed 30 mph    
Max Gust Speed 44 mph    
Visibility 10 miles    
Events      
T = Trace of Precipitation, MM = Missing Value Source: NWS Daily Summary

Daily Weather History Graph

Daily Weather History Graph

Search for Another Location

Airport:

Trip Planner

Search our weather history database for the weather conditions in past years. The results will help you decide how hot, cold, wet, or windy it might be!

Date:

Astronomy

Jan. 20, 2013 Rise Set
Actual Time 7:51 AM EST 5:41 PM EST
Civil Twilight 7:22 AM EST 6:11 PM EST
Nautical Twilight 6:49 AM EST 6:43 PM EST
Astronomical Twilight 6:17 AM EST 7:15 PM EST
Moon 12:42 PM EST (1/20) 2:22 AM EST (1/20)
Length of Visible Light 10h 48m
Length of Day
9h 50m
Waxing Gibbous, 66% of the Moon is Illuminated
Jan 20
Waxing Gibbous
Jan 26
Full
Feb 3
Last Quarter
Feb 10
New
Feb 17
First Quarter

Hourly Weather History & Observations

Time (EST) Temp. Windchill Dew Point Humidity Pressure Visibility Wind Dir Wind Speed Gust Speed Precip Events Conditions
1:54 AM 43.0 °F 34.2 °F 30.0 °F 60% 29.92 in 10.0 mi WSW 20.7 mph - N/A   Clear
2:54 AM 43.0 °F 35.1 °F 30.9 °F 62% 29.94 in 10.0 mi WSW 17.3 mph 24.2 mph N/A   Clear
3:54 AM 44.1 °F 35.2 °F 33.1 °F 65% 29.96 in 10.0 mi West 23.0 mph 31.1 mph N/A   Mostly Cloudy
4:34 AM 42.8 °F 33.5 °F 32.0 °F 66% 29.94 in 10.0 mi West 23.0 mph 39.1 mph N/A   Mostly Cloudy
4:43 AM 42.8 °F 32.7 °F 30.2 °F 61% 29.95 in 10.0 mi WNW 27.6 mph 38.0 mph N/A   Scattered Clouds
4:54 AM 41.0 °F 29.8 °F 19.9 °F 43% 29.99 in 10.0 mi West 29.9 mph 43.7 mph N/A   Partly Cloudy
5:54 AM 37.0 °F 26.4 °F 19.0 °F 48% 30.03 in 10.0 mi West 20.7 mph 40.3 mph N/A   Clear
6:54 AM 33.1 °F 20.9 °F 12.9 °F 43% 30.07 in 10.0 mi West 21.9 mph 31.1 mph N/A   Clear
7:54 AM 30.0 °F 19.5 °F 14.0 °F 51% 30.12 in 10.0 mi WNW 13.8 mph 18.4 mph N/A   Clear
8:54 AM 30.0 °F 19.1 °F 10.0 °F 43% 30.17 in 10.0 mi WNW 15.0 mph 21.9 mph N/A   Clear
9:54 AM 28.9 °F 16.5 °F 12.0 °F 49% 30.22 in 10.0 mi NW 18.4 mph 23.0 mph N/A   Clear
10:54 AM 30.0 °F 20.0 °F 12.9 °F 49% 30.25 in 10.0 mi WNW 12.7 mph 23.0 mph N/A   Clear
11:54 AM 30.0 °F 20.0 °F 12.9 °F 49% 30.25 in 10.0 mi WNW 12.7 mph - N/A   Clear
12:54 PM 32.0 °F 24.8 °F 15.1 °F 50% 30.22 in 10.0 mi WNW 8.1 mph - N/A   Clear
1:54 PM 30.9 °F 22.2 °F 10.0 °F 42% 30.23 in 10.0 mi WNW 10.4 mph - N/A   Clear
2:54 PM 32.0 °F 23.6 °F 12.9 °F 45% 30.22 in 10.0 mi West 10.4 mph - N/A   Clear
3:54 PM 33.1 °F 25.5 °F 12.0 °F 42% 30.21 in 10.0 mi West 9.2 mph - N/A   Clear
4:54 PM 30.9 °F 24.3 °F 10.9 °F 43% 30.21 in 10.0 mi West 6.9 mph - N/A   Clear
5:54 PM 30.0 °F 22.4 °F 9.0 °F 41% 30.24 in 10.0 mi NW 8.1 mph - N/A   Scattered Clouds
6:54 PM 28.0 °F 19.3 °F 12.0 °F 51% 30.25 in 10.0 mi WNW 9.2 mph - N/A   Clear
7:54 PM 28.0 °F 20.0 °F 10.0 °F 47% 30.25 in 10.0 mi NW 8.1 mph - N/A   Partly Cloudy
8:54 PM 27.0 °F 19.5 °F 10.9 °F 51% 30.25 in 10.0 mi NW 6.9 mph - N/A   Overcast
9:54 PM 25.0 °F 17.1 °F 10.9 °F 55% 30.25 in 10.0 mi WNW 6.9 mph - N/A   Mostly Cloudy
10:54 PM 25.0 °F 17.1 °F 12.0 °F 58% 30.24 in 10.0 mi NW 6.9 mph - N/A   Mostly Cloudy
11:54 PM 24.1 °F 15.2 °F 12.0 °F 60% 30.23 in 10.0 mi NW 8.1 mph - N/A   Overcast